Retour au catalogue

SL-12 DEB

LostHEO
NORAD 29417·DEBRIS·🇷🇺 Russia

Lancé May 31, 1989 depuis Baikonur Cosmodrome

Loading…

Prochains Passages (prochaines 24 heures)

TLE

PériméSource: Space-Track

Époque: Aug 5, 2006, 08:03 UTC

1 29417U 89039BV  06217.33572022  .00000047  00000-0  10000-3 0  9997
2 29417  65.0036 272.4076 5120390  70.2911 336.8424  4.32149628  1687

Suivez SL-12 DEB en temps réel avec AllMySat

Download on the App Store